[Iaude] MPEC G65: 2017 GS5 [a=1.58,e=0.34,i=9.0,H=24.0]

mpec at si.edu mpec at si.edu
Thu Apr 6 19:01:35 EDT 2017


M.P.E.C. 2017-G65                                Issued 2017 Apr. 6, 22:56 UT
 
     The Minor Planet Electronic Circulars contain information on unusual
         minor planets and routine data on comets.  They are published
    on behalf of Division F of the International Astronomical Union by the
          Minor Planet Center, Smithsonian Astrophysical Observatory,
                          Cambridge, MA 02138, U.S.A.

             Prepared using the Tamkin Foundation Computer Network

                              MPC at CFA.HARVARD.EDU
            URL http://www.minorplanetcenter.net/    ISSN 1523-6714


                                   2017 GS5
 
Observations:
     K17G05S* C2017 04 04.46520 14 45 43.471-33 41 24.61         19.6 iLEG065F51
     K17G05S  C2017 04 04.47424 14 45 50.791-33 40 28.74         19.0 iLEG065F51
     K17G05S  C2017 04 04.48329 14 45 58.082-33 39 33.18         19.0 iLEG065F51
     K17G05S |C2017 04 05.25305 14 57 05.83 -32 13 56.2          19.9 VuEG065807
     K17G05S |C2017 04 05.25532 14 57 07.66 -32 13 41.1          19.6 VuEG065807
     K17G05S |C2017 04 05.25750 14 57 09.41 -32 13 26.6          19.7 VuEG065807
     K17G05S  C2017 04 05.41775 14 59 24.64 -31 57 15.9          19.0 VqEG065I52
     K17G05S  C2017 04 05.41816 14 59 24.97 -31 57 13.8          19.4 VqEG065I52
     K17G05S  C2017 04 05.41858 14 59 25.28 -31 57 10.6          19.6 VqEG065I52
     K17G05S  C2017 04 05.41899 14 59 25.71 -31 57 06.7                qEG065I52
     K17G05S |C2017 04 06.18077 15 10 24.28 -30 24 30.2          19.2 VuEG065807
     K17G05S |C2017 04 06.18378 15 10 26.70 -30 24 09.0          19.5 VuEG065807
     K17G05S |C2017 04 06.18680 15 10 29.10 -30 23 47.5          19.6 VuEG065807
     K17G05S  C2017 04 06.35366 15 12 47.40 -30 05 32.6          20.0 VoEG065691
     K17G05S  C2017 04 06.35522 15 12 48.76 -30 05 20.8                oEG065691
     K17G05S  C2017 04 06.35679 15 12 49.78 -30 05 10.2                oEG065691
     K17G05S  C2017 04 06.43399 15 13 50.36 -29 55 36.2          19.6 RoEG065691
     K17G05S  C2017 04 06.43544 15 13 51.46 -29 55 25.5          18.6 RoEG065691
     K17G05S  C2017 04 06.43690 15 13 52.70 -29 55 15.0                oEG065691
 
Observer details:
691 Steward Observatory, Kitt Peak.  Observer R. S. McMillan.  Measurers
    R. S. McMillan, T. H. Bressi.  0.9-m f/3 reflector + CCD.
807 Cerro Tololo.  Observers T. Linder, R. Holmes.  0.61-m f/6.5 astrograph
    + CCD.
F51 Pan-STARRS 1, Haleakala.  Observers B. Gibson, T. Goggia, S. Kahale,
    T. Lowe, A. Schultz, M. Willman.  Measurers K. Chambers, S. Chastel,
    L. Denneau, H. Flewelling, M. Huber, E. Lilly, E. Magnier, R. Wainscoat,
    C. Waters, R. Weryk.  1.8-m Ritchey-Chretien + CCD.
I52 Steward Observatory, Mt. Lemmon Station.  Observer E. J. Christensen.
    Measurers E. J. Christensen, D. C. Fuls, A. R. Gibbs, A. D. Grauer,
    J. A. Johnson, R. A. Kowalski, S. M. Larson, G. J. Leonard, R. G. Matheny,
    R. L. Seaman, F. C. Shelly.  1.0-m reflector + CCD.
 
Orbital elements:
2017 GS5                                                 Earth MOID = 0.0432 AU
Epoch 2017 Feb. 16.0 TT = JDT 2457800.5                 MPC
M 331.77696              (2000.0)            P               Q
n   0.49834528     Peri.    3.45078     -0.89796797     +0.43591695
a   1.5756115      Node   202.69405     -0.40739474     -0.87524739
e   0.3361611      Incl.    8.98422     -0.16638227     -0.20956723
P   1.98           H   24.0           G   0.15           U   6
Residuals in seconds of arc
170404 F51  0.1-  0.1-    170405 I52  0.0   0.6-    170406 691  2.0+  0.7+
170404 F51  0.1+  0.2+    170405 I52  0.4-  0.3-    170406 691  0.8-  0.2-
170404 F51  0.0   0.1-    170405 I52  0.9+  0.7+    170406 691  0.3-  0.3+
170405 807  0.1-  0.2+    170406 807  0.7-  0.4-    170406 691  0.8-  0.0
170405 807  0.0   0.1+    170406 807  0.5-  0.5-    170406 691  0.5+  0.5-
170405 807  0.0   0.0     170406 807  0.7-  0.5-
170405 I52  0.0   0.1+    170406 691  0.3+  0.3+

Ephemeris:
2017 GS5                 a,e,i = 1.58, 0.34, 9                   q = 1.0460
Date    TT    R. A. (2000) Decl.     Delta      r     Elong.  Phase     V
2017 03 07    10 47 48.3 -37 45 15   0.1508  1.1067   136.6    38.1    21.6
...
2017 03 22    12 01 52.3 -42 11 11   0.09437 1.0687   138.3    38.3    20.6
...
2017 03 30    13 28 03.1 -40 19 12   0.07162 1.0556   141.4    36.2    19.9
...
2017 04 05    14 53 24.5 -32 42 12   0.06141 1.0493   141.8    36.2    19.5
2017 04 06    15 07 44.0 -30 46 44   0.06051 1.0485   141.3    36.6    19.5
2017 04 07    15 21 44.6 -28 41 45   0.05988 1.0479   140.6    37.3    19.5
...
2017 04 13    16 34 35.0 -14 30 05   0.06160 1.0459   133.4    44.2    19.7
...
2017 04 21    17 37 14.9 +01 42 12   0.07584 1.0483   123.2    53.4    20.5
...
2017 05 06    18 28 16.3 +16 35 58   0.1181  1.0680   117.3    57.1    21.6

A. U. Tomatic                (C) Copyright 2017 MPC           M.P.E.C. 2017-G65




More information about the Iaude mailing list